Regional Weather Roundup
Issued by NWS Green Bay, WI

Home | Current Version | Previous Version | Graphics & Text | Print | Product List | Glossary Off
Versions: 1 2 3 4 5 6 7 8 9 10 11 12 13 14 15 16 17 18 19 20 21 22 23 24 25 26 27 28 29 30 31 32 33 34 35 36 37 38 39 40 41 42 43 44 45 46 47 48 49 50

163
ASUS43 KGRB 031311
RWRGRB

NORTH-CENTRAL AND NORTHEAST WISCONSIN REGIONAL WEATHER ROUNDUP
NATIONAL WEATHER SERVICE GREEN BAY WI
700 AM CST SAT DEC 03 2016

WIZ005-009-010>012-018-019-031400-
NORTH CENTRAL WISCONSIN

CITY           SKY/WX    TMP DP  RH WIND       PRES   REMARKS
IRONWOOD       CLOUDY    28  27  96 SW5       30.26R
MANITOWISH WTR CLOUDY    26  26 100 CALM      30.24R
ARBOR VITAE    CLOUDY    27  25  93 CALM      30.24S
EAGLE RIVER    CLOUDY    27  27  99 CALM      30.23S
LAND O LAKES   CLOUDY    28  26  90 W3        30.24S
RHINELANDER    CLOUDY    27  23  85 W6        30.26R
PHILLIPS       CLOUDY    26  26  97 CALM      30.25S
ANTIGO         CLOUDY    26  23  90 W7        30.26S
TOMAHAWK       CLOUDY    26  22  82 CALM      30.27R
MERRILL        CLOUDY    27  23  84 CALM      30.28S
$$

WIZ013-073-031400-
NORTHEAST WISCONSIN

CITY           SKY/WX    TMP DP  RH WIND       PRES   REMARKS
IRON MOUNTAIN  CLOUDY    32  26  78 CALM      30.24R
MARINETTE      NOT AVBL
OCONTO         CLOUDY    32  26  80 W7        30.29S
$$

WIZ017-030-035>037-045-031400-
CENTRAL WISCONSIN

CITY           SKY/WX    TMP DP  RH WIND       PRES   REMARKS
MEDFORD        CLOUDY    27  21  78 W8        30.26S
WAUSAU         CLOUDY    28  22  78 W5        30.27S
MOSINEE        CLOUDY    28  25  86 W7        30.28F
MARSHFIELD     CLOUDY    29  21  72 W5        30.27S
WISC RAPIDS    CLOUDY    30  22  72 NW6       30.31S
STEVENS POINT  CLOUDY    28  21  75 NW7       30.29F
WAUPACA        CLOUDY    32  24  71 CALM      30.31S
SHAWANO        CLOUDY    32  25  74 W5        30.30S
CLINTONVILLE   CLOUDY    32  23  69 W9        30.30S
WAUTOMA        CLOUDY    30  24  78 W3        30.32R
$$

WIZ038-039-048-051-031400-
FOX VALLEY

CITY           SKY/WX    TMP DP  RH WIND       PRES   REMARKS
NWS GREEN BAY  CLOUDY    33  27  78 W14       30.30R
APPLETON       CLOUDY    30  21  69 W7        30.29S
OSHKOSH        CLOUDY    31  24  75 W7        30.31R
FOND DU LAC    CLOUDY    31  22  69 W9        30.32R
$$

WIZ022-050-052-031400-
EAST CENTRAL WISCONSIN

CITY           SKY/WX    TMP DP  RH WIND       PRES   REMARKS
EPHRAIM        CLOUDY    34  31  87 CALM      30.26R
WASHINGTON ISL CLOUDY    35  30  80 NW5       30.26R
STURGEON BAY   LGT RAIN  33  28  81 W9        30.29R
MANITOWOC      CLOUDY    33  25  72 MISG      30.30S
SHEBOYGAN      CLOUDY    31  23  72 W9        30.31S
$$

LMZ563-521-522-541>543-031400-
LAKESHORE

STATION/POSITION TIME  TEMP    WIND        PRES    VSBY  WAVE
                       AIR SEA DIR/SP/G                  HT/PER
                 (UTC) (F)     (DEG/KT/KT) (MB)    (MI)  (FT/S)
SHEBOYGAN LKSHOR 1300   32     260/  7/  9 1027.1R
KEWAUNEE LKSHORE 1242   33     280/  7/ 11 1025.1R
ALGOMA MARINA    1206          310/  5/ 10   N/A
NORTHPORT PIER   1240   37     290/  6/ 11 1024.4S
SISTER BAY LKSHO 1238   36     320/ 11/ 15   N/A
CHAMBERS ISLAND  1240   35     290/  5/  8 1024.4R
MENOMINEE LKSHOR 1242   34     250/  6/  7 1024.3R
$$




USA.gov is the U.S. government's official web portal to all federal, state and local government web resources and services.